Weather in Rozhaje

Montenegro     42°50′34″N   20°10′02″E
temp.,
°C
wind,
m/s
gust,
m/s
humid.,
%
clouds,
%
prec.,
mm/h
press.,
hPa
HPBL,
m
27 july, tue
tue2723:00+18wsw22645 0.0 102115
02:00+17w225920 0.0 102112
05:00+17w22485 0.0 102113
08:00+23s00430 0.0 1021123
11:00+27ese22350 0.0 10211470
14:00+29ese24304 0.0 10192125
17:00+28e223329 0.0 10191326
20:00+21w11540 0.0 102013
28 july, wed
wed2823:00+20wsw12464 0.0 102114
02:00+19w224784 0.0 102113
05:00+19w224338 0.0 102013
08:00+24sw11427 0.0 101999
11:00+29se132618 0.0 10182600
14:00+26e234120 0.0 1018819
17:00+26nw363656 0.1 1018477
20:00+20ssw22551 0.1 101917
29 july, thu
thu2923:00+20w32450 0.0 101919
02:00+19w32400 0.0 101920
05:00+18w32370 0.0 101821
08:00+24w12400 0.0 101888
11:00+29ese12242 0.0 10172618
14:00+29ese232484 0.0 10162043
17:00+27n343850 0.0 1015296
20:00+22w33412 0.0 101628
30 july, fri
fri3023:00+20w22330 0.0 101618
02:00+20w22340 0.0 101616
05:00+19w22350 0.0 101514
08:00+24wsw11380 0.0 1015102
11:00+29sse24230 0.0 10132355
14:00+31sw24192 0.0 10123479
17:00+29wsw44220 0.0 10112339
20:00+21w33380 0.0 101328
31 july, sat
sat3123:00+19w32330 0.0 101327
02:00+18w32360 0.0 101328
05:00+17wnw32360 0.0 101326
08:00+23nw12380 0.0 1013118
11:00+28ene11280 0.0 10121889
14:00+30ene242422 0.0 10113111
17:00+28ne223442 0.0 1010947
20:00+22wnw22404 0.0 101222